Hourly Data Report for October 23, 2017

All times are specified in Local Standard Time (LST). Add 1 hour to adjust for Daylight Saving Time where and when it is observed.

POWELL RIVER
BRITISH COLUMBIA

49°50'04.400" N
124°29'48.500" W
125.00 m
1046392
71720
VOP

Download Data

Hourly Data (October 2017)
Hourly Data Report for October 23, 2017
Temp Definition
°C
Dew Point Temp Definition
°C
Rel Hum Definition
%
Wind Dir Definition
10's deg

Wind Spd Definition
km/h
Visibility Definition
km
Stn Press Definition
kPa
Hmdx Definition


Wind Chill Definition


Weather Definition


TIME
00:00 5.6 4.9 96 LegendMM LegendMM   101.59     LegendNANA
01:00 6.1 5.6 96 LegendMM LegendMM   101.66     LegendNANA
02:00 8.5 7.5 94 LegendMM LegendMM   101.72     LegendNANA
03:00 9.5 7.7 89 LegendMM LegendMM   101.74     LegendNANA
04:00 9.8 7.2 84 LegendMM LegendMM   101.80     LegendNANA
05:00 9.9 7.0 82 LegendMM LegendMM   101.85     LegendNANA
06:00 10.1 6.9 81 LegendMM LegendMM   101.90     LegendNANA
07:00 9.8 7.4 85 LegendMM LegendMM   101.93     LegendNANA
08:00 10.6 7.4 81 LegendMM LegendMM   101.97     LegendNANA
09:00 11.0 7.7 80 LegendMM LegendMM   102.06     LegendNANA
10:00 11.3 7.7 79 LegendMM LegendMM   102.10     LegendNANA
11:00 11.3 7.7 79 LegendMM LegendMM   102.15     LegendNANA
12:00 11.5 7.8 78 LegendMM LegendMM   102.12     LegendNANA
13:00 11.7 7.9 77 LegendMM LegendMM   102.11     LegendNANA
14:00 11.7 7.9 77 LegendMM LegendMM   102.10     LegendNANA
15:00 11.7 7.6 76 LegendMM LegendMM   102.11     LegendNANA
16:00 11.6 7.7 77 LegendMM LegendMM   102.09     LegendNANA
17:00 10.6 8.0 84 LegendMM LegendMM   102.17     LegendNANA
18:00 10.3 8.7 90 LegendMM LegendMM   102.19     LegendNANA
19:00 10.4 9.0 91 LegendMM LegendMM   102.19     LegendNANA
20:00 11.3 8.8 85 LegendMM LegendMM   102.21     LegendNANA
21:00 11.6 8.5 82 LegendMM LegendMM   102.26     LegendNANA
22:00 11.9 8.3 79 LegendMM LegendMM   102.27     LegendNANA
23:00 11.1 8.5 84 LegendMM LegendMM   102.27     LegendNANA

Notes on Data Quality.

Legend

  • E = Estimated
  • M = Missing
  • NA = Not Available
  • ‡ = Partner data that is not subject to review by the National Climate Archives
Date modified: